Date,TemperatureHighF,TemperatureAvgF,TemperatureLowF,DewpointHighF,DewpointAvgF,DewpointLowF,HumidityHigh,HumidityAvg,HumidityLow,PressureMaxIn,PressureMinIn,WindSpeedMaxMPH,WindSpeedAvgMPH,GustSpeedMaxMPH,PrecipitationSumIn
2013-1-1,36.3,30.9,18.8,24.3,15.6,4.8,67,53,40,29.89,29.68,21,5,25,0.00
2013-1-2,27.6,19.3,9.2,14.0,5.5,-5.0,62,54,44,30.08,29.87,16,5,24,0.00
2013-1-3,23.6,14.4,5.8,5.7,-2.2,-6.0,61,47,28,30.10,29.97,12,3,19,0.00
2013-1-4,36.8,30.2,17.5,22.3,18.0,5.4,70,60,51,29.97,29.77,14,3,19,0.00
2013-1-5,39.3,32.9,24.2,23.6,19.8,16.7,77,59,43,30.25,29.80,11,2,17,0.00
2013-1-6,41.9,34.1,24.1,28.7,24.9,18.2,86,70,53,30.20,29.91,13,1,19,0.00
2013-1-7,37.2,32.5,25.4,30.0,25.4,21.7,87,75,64,30.39,29.92,12,2,18,0.00
2013-1-8,46.1,39.2,33.5,30.6,26.9,25.3,84,62,44,30.35,30.23,16,4,26,0.00
2013-1-9,44.2,37.1,26.9,35.1,28.5,23.0,86,72,52,30.39,29.95,21,3,24,0.00
2013-1-10,44.8,40.9,34.1,27.2,24.6,22.1,66,52,44,30.51,29.98,24,7,34,0.00
2013-1-11,40.5,35.7,27.8,36.8,28.5,21.8,91,75,61,30.50,30.22,11,2,13,0.06
2013-1-12,45.1,42.3,39.2,41.2,39.5,37.0,95,90,82,30.22,30.11,11,2,14,0.01
2013-1-13,49.6,45.4,42.2,48.2,44.2,40.8,97,96,94,30.14,29.97,12,3,18,0.01
2013-1-14,62.0,51.5,41.1,51.1,41.9,26.3,96,72,37,30.22,29.83,13,4,21,0.00
2013-1-15,41.1,38.1,35.8,29.1,26.2,22.8,73,62,54,30.30,30.20,7,2,12,0.00
2013-1-16,36.3,33.9,31.6,35.0,29.8,22.0,95,86,57,30.23,29.80,8,1,12,0.35
2013-1-17,41.2,34.6,28.2,31.6,25.5,7.7,95,71,41,30.07,29.80,13,4,20,0.12
2013-1-18,28.2,21.4,16.7,11.0,-0.6,-9.0,48,37,27,30.43,30.04,17,5,25,0.00
2013-1-19,48.8,38.5,24.4,33.0,22.5,5.6,72,53,34,30.37,29.86,25,8,34,0.00
2013-1-20,53.9,41.9,28.2,34.2,24.8,7.5,73,52,29,29.88,29.49,20,9,33,0.00
2013-1-21,28.8,25.0,21.0,20.0,7.1,-1.0,85,49,31,30.07,29.77,18,2,22,0.00
2013-1-22,25.7,21.0,14.1,21.2,9.8,-2.0,86,63,38,30.04,29.71,17,4,20,0.00
2013-1-23,14.1,10.5,6.0,0.0,-9.8,-15.0,57,39,26,30.11,30.03,16,5,21,0.00
2013-1-24,16.7,9.4,1.7,-7.0,-12.2,-16.0,48,36,25,30.15,30.01,22,8,26,0.00
2013-1-25,22.1,15.5,8.1,2.8,-7.6,-10.0,50,35,24,30.25,30.05,17,5,24,0.00
2013-1-26,23.2,17.8,14.1,10.8,3.3,-9.0,80,55,27,30.18,29.97,19,5,27,0.00
2013-1-27,28.1,20.3,14.1,3.8,-1.8,-7.0,57,38,23,30.44,30.17,21,7,22,0.00
2013-1-28,30.7,24.4,17.8,29.1,9.0,-4.0,94,55,25,30.43,30.00,10,1,12,0.00
2013-1-29,35.0,31.8,27.5,32.4,29.2,25.4,94,91,85,30.17,30.00,8,1,11,0.15
2013-1-30,57.2,47.3,33.8,54.4,45.3,31.9,95,93,86,30.14,29.47,28,9,31,0.16
2013-1-31,58.1,46.1,30.3,55.1,35.0,13.5,96,68,34,29.54,28.95,36,12,38,0.33
2013-2-1,32.8,28.1,22.1,16.0,7.9,3.2,57,43,29,30.03,29.55,17,6,27,0.00
2013-2-2,28.7,24.2,18.0,9.7,4.9,0.0,54,43,30,30.22,30.03,13,4,19,0.00
2013-2-3,27.2,25.6,23.6,22.9,18.8,8.7,88,76,46,30.03,29.69,13,4,21,0.00
2013-2-4,30.0,24.9,20.6,17.6,9.0,2.4,78,52,34,29.90,29.68,18,6,24,0.00
2013-2-5,27.3,23.7,19.9,22.7,9.3,3.0,85,55,41,30.02,29.90,11,1,13,0.00
2013-2-6,38.9,30.5,25.7,27.0,20.6,9.4,92,69,45,30.26,29.91,14,2,21,0.04
2013-2-7,26.3,22.1,17.8,15.4,2.4,-4.0,64,42,27,30.51,30.25,13,3,19,0.00
2013-2-8,32.4,29.6,23.8,30.0,25.1,15.0,95,84,63,30.50,29.58,21,10,46,0.00
2013-2-9,23.6,19.2,16.5,22.0,15.9,9.7,93,87,73,30.12,29.52,35,14,46,0.00
2013-2-10,36.2,23.5,13.6,19.0,6.4,-1.0,75,49,30,30.37,30.13,18,3,19,0.00
2013-2-11,43.5,35.0,24.7,42.4,28.3,3.1,96,79,35,30.34,29.58,17,4,26,0.36
2013-2-12,44.8,38.4,34.4,35.1,28.3,25.2,96,68,47,29.83,29.56,17,5,25,0.00
2013-2-13,41.5,35.5,30.1,29.3,24.1,21.1,83,64,45,29.84,29.68,11,2,14,0.00
2013-2-14,41.1,36.5,33.1,29.6,23.9,17.5,83,61,41,29.98,29.67,11,3,20,0.00
2013-2-15,48.5,39.4,33.4,35.3,31.6,25.0,91,74,53,29.99,29.89,15,4,24,0.00
2013-2-16,36.5,33.8,31.3,32.6,29.7,19.0,94,85,59,29.92,29.69,18,4,22,0.03
2013-2-17,31.2,22.2,17.5,20.5,12.2,1.1,90,67,44,29.68,29.29,29,12,37,0.00
2013-2-18,30.3,22.5,14.9,4.2,0.5,-4.0,56,39,24,30.11,29.58,25,8,31,0.00
2013-2-19,43.2,34.9,23.6,41.5,21.4,0.0,95,61,32,30.13,29.55,20,5,26,0.51
2013-2-20,41.8,33.3,26.4,40.7,21.1,10.0,96,63,40,29.73,29.49,18,6,22,0.00
2013-2-21,30.1,26.8,24.7,18.9,13.0,8.4,70,56,44,30.12,29.72,20,7,24,0.00
2013-2-22,36.6,31.9,26.7,23.9,21.5,17.2,75,66,54,30.36,30.12,18,4,21,0.00
2013-2-23,37.6,35.6,31.9,34.2,28.6,23.4,92,76,66,30.32,29.93,15,4,20,0.19
2013-2-24,39.1,35.1,30.7,37.5,33.5,29.4,96,94,92,29.92,29.67,14,5,24,0.97
2013-2-25,39.1,33.1,29.3,30.9,28.6,26.5,96,84,61,30.22,29.86,10,1,16,0.23
2013-2-26,42.2,36.2,29.8,35.0,29.1,24.0,94,77,52,30.33,30.16,12,2,16,0.00
2013-2-27,42.6,40.0,37.9,41.5,36.9,29.4,96,89,71,30.17,29.50,21,8,29,1.34
2013-2-28,46.0,38.0,33.8,40.4,34.6,32.7,96,88,66,29.62,29.51,9,2,16,0.01
2013-3-1,40.2,36.6,34.0,33.0,29.9,28.3,89,77,64,29.66,29.51,13,4,17,0.00
2013-3-2,43.9,36.7,30.9,31.1,28.2,25.1,81,72,53,29.65,29.60,12,3,17,0.00
2013-3-3,39.2,35.2,31.3,33.1,29.4,25.3,90,80,70,29.62,29.54,8,3,13,0.00
2013-3-4,39.3,33.8,30.6,28.0,23.7,21.4,83,67,53,29.69,29.53,21,7,25,0.00
2013-3-5,41.3,36.2,31.5,36.0,28.8,22.1,92,75,66,30.05,29.69,15,4,19,0.01
2013-3-6,39.8,37.7,34.7,35.0,31.4,26.6,89,78,66,30.12,30.03,24,9,31,0.07
2013-3-7,36.6,33.3,31.5,32.4,30.4,26.6,96,89,67,30.07,29.97,27,11,36,0.24
2013-3-8,41.9,34.3,30.3,36.0,29.0,25.0,96,84,52,30.12,29.92,32,11,34,0.02
2013-3-9,38.9,35.7,29.7,30.6,27.1,23.6,92,71,57,30.34,30.12,19,6,27,0.00
2013-3-10,39.2,35.8,30.3,32.0,29.6,27.9,93,79,66,30.40,30.30,17,3,19,0.00
2013-3-11,45.8,40.1,35.3,39.0,34.8,31.2,91,82,68,30.33,30.14,16,6,21,0.00
2013-3-12,48.5,45.4,40.5,47.2,43.2,38.4,96,92,86,30.16,29.72,24,10,33,0.29
2013-3-13,51.9,45.0,37.5,49.6,33.6,19.6,96,67,38,29.76,29.67,12,3,17,0.01
2013-3-14,37.8,32.8,22.9,23.9,15.9,3.0,66,50,38,29.78,29.66,20,5,29,0.00
2013-3-15,40.5,29.1,19.1,25.9,9.7,2.3,71,46,22,29.83,29.61,24,6,33,0.00
2013-3-16,37.2,32.5,28.1,26.2,15.1,6.2,72,50,28,29.86,29.62,13,3,26,0.00
2013-3-17,35.5,30.9,25.4,16.4,9.7,0.9,61,42,26,30.30,29.87,17,5,22,0.00
2013-3-18,32.7,27.3,19.5,26.0,10.7,0.0,80,50,34,30.45,30.26,16,5,24,0.00
2013-3-19,34.6,31.8,26.3,34.0,30.5,25.0,96,95,82,30.25,29.57,27,9,31,0.82
2013-3-20,38.2,30.9,25.0,25.1,20.3,17.0,95,67,44,29.79,29.65,21,5,28,0.09
2013-3-21,35.6,30.8,27.8,28.0,20.1,14.6,92,65,46,29.80,29.59,6,1,11,0.01
2013-3-22,40.1,33.4,29.0,27.2,20.7,15.6,90,61,37,29.69,29.57,11,3,16,0.01
2013-3-23,42.3,35.0,27.6,21.6,19.1,16.0,70,53,35,29.73,29.59,19,7,28,0.00
2013-3-24,46.7,36.9,30.4,29.2,23.9,19.7,87,60,38,29.79,29.72,11,4,19,0.00
2013-3-25,41.8,37.3,29.8,34.1,30.7,26.6,90,77,66,29.76,29.52,17,4,21,0.00
2013-3-26,41.9,36.8,34.6,32.1,27.6,22.7,89,70,48,29.65,29.51,18,6,22,0.01
2013-6-8,77.9,62.9,52.9,63.0,56.8,52.0,98,82,56,29.97,29.60,8,2,19,0.63
2013-6-9,77.0,66.0,56.9,59.3,56.4,52.5,96,73,43,30.14,29.97,9,1,13,0.00
2013-6-10,66.3,60.6,56.7,56.6,54.9,52.8,97,82,65,30.20,30.02,10,1,11,0.30
2013-6-11,58.6,55.5,53.5,58.0,54.2,51.5,98,95,88,30.02,29.56,17,3,20,1.32
2013-6-12,67.4,59.9,54.4,58.1,54.9,52.1,99,85,64,29.78,29.54,14,2,24,0.03
2013-6-13,66.6,58.0,52.5,56.0,52.5,49.3,96,83,58,29.80,29.69,9,1,14,0.46
2013-6-14,70.6,58.0,51.7,55.0,52.1,49.2,96,82,53,29.74,29.64,10,2,14,0.97
2013-6-15,78.5,64.9,53.8,54.4,49.4,40.1,94,61,27,29.91,29.75,10,2,16,0.00
2013-6-16,75.3,66.3,56.2,60.6,52.4,46.6,80,62,37,29.91,29.70,13,2,17,0.00
2013-6-17,84.7,68.5,60.4,62.0,58.8,54.8,95,74,39,29.88,29.74,14,2,18,0.12
2013-6-18,69.9,61.5,56.7,60.2,56.9,52.7,95,86,58,29.94,29.86,9,1,13,0.09
2013-6-19,70.3,61.7,55.1,57.4,51.1,44.7,97,71,42,30.13,29.90,10,2,14,0.15
2013-6-20,72.3,63.7,50.5,58.0,52.7,48.0,95,69,44,30.25,30.13,13,2,18,0.00
2013-6-21,76.1,64.5,61.0,59.3,55.1,52.9,79,72,56,30.23,30.20,12,2,15,0.00